Wind_Speed
3 3 5 7 6 3 4 4 3 4 5 4 4 3 3 4 4 4 6 7 7 7 7 6 6 5 6 7 6 6 9 10 10 8 6 4 3 3 3 3 5 8 8 10 9 8 11 11 12 13 15 14 13 13 13 13 19 24 24 26 26 23 24 23 23 22 22 21 19 18 17 17 18 21 25 27 28 29 30 31 31 32 32 33 32
3 4 5 5 3 1 3 6 5 5 6 5 4 4 4 4 4 4 5 7 8 8 9 7 6 6 6 7 7 5 6 7 8 7 5 4 3 3 3 4 5 8 9 9 9 9 11 11 13 14 14 12 12 14 14 16 22 24 23 26 26 24 24 23 23 22 22 21 19 18 18 17 18 21 24 26 27 28 29 30 30 31 32 32 31
3 4 4 2 2 4 3 4 5 6 8 6 4 4 4 4 4 4 4 6 7 8 9 8 7 7 7 7 6 5 5 6 6 5 4 4 3 3 3 4 5 8 10 8 7 10 12 12 13 13 13 11 12 14 15 19 24 23 22 25 25 25 25 24 23 22 22 21 20 18 18 17 18 21 23 25 26 27 28 29 29 30 30 30 30
4 4 3 2 3 5 3 2 3 6 8 8 5 3 3 3 3 3 4 5 5 7 8 9 8 7 8 8 7 6 6 6 6 5 4 4 4 3 4 5 7 8 10 10 7 9 13 12 13 13 13 12 14 14 17 22 23 22 22 25 26 25 25 24 23 22 22 22 21 19 18 18 18 21 22 23 24 26 27 28 28 29 29 29 29
7 7 6 4 3 3 3 4 6 6 7 9 7 5 3 2 2 2 4 5 4 5 7 9 9 8 8 9 8 8 8 8 8 7 6 5 5 4 4 5 8 8 9 11 8 10 14 13 13 13 13 14 15 16 20 23 22 22 23 25 26 25 25 24 23 22 22 22 21 20 19 18 19 21 22 23 23 25 26 27 27 27 28 28 28
10 10 8 6 3 4 6 6 6 6 6 9 10 7 4 3 2 2 3 5 5 5 6 8 9 9 8 9 9 10 10 10 9 8 7 5 5 5 5 6 7 8 8 10 9 11 14 14 14 13 14 16 17 18 21 21 22 23 23 25 25 25 25 24 23 23 23 23 22 21 20 19 19 21 22 22 23 24 25 25 26 26 26 26 27
12 10 8 5 4 5 4 4 4 4 4 9 10 8 5 4 4 4 4 4 7 7 6 7 9 9 9 9 10 11 10 10 9 8 6 5 5 5 6 6 7 8 9 9 10 13 15 14 14 14 15 17 18 20 21 21 22 23 23 24 24 24 25 24 24 23 23 23 22 22 22 21 20 21 22 22 23 24 24 24 24 24 24 24 25
12 10 7 5 5 4 4 4 5 5 5 7 9 9 7 6 5 6 5 4 7 9 8 8 9 10 10 10 11 11 10 9 9 8 7 5 5 6 7 7 8 9 9 9 10 13 14 14 15 15 16 18 20 21 22 21 22 22 23 23 23 22 23 25 24 22 22 22 23 23 23 23 22 21 21 22 22 23 23 23 22 22 22 23 23
13 10 7 5 6 5 6 6 4 6 7 5 7 9 8 8 7 7 6 5 7 8 9 10 9 10 11 11 11 10 9 10 9 9 9 7 6 7 8 9 9 9 9 9 11 13 14 14 15 16 18 19 20 22 22 21 21 22 22 22 23 22 22 24 24 22 21 21 22 22 23 23 23 21 21 21 21 22 22 22 21 20 20 20 21
13 11 8 8 9 7 7 5 3 6 7 4 5 7 7 8 8 8 8 7 7 7 10 12 10 11 12 12 11 11 10 10 11 11 11 10 8 8 9 10 10 9 9 10 12 13 13 13 15 18 19 20 21 23 23 22 21 20 21 21 22 22 21 22 23 22 20 20 20 21 22 22 22 21 20 20 21 21 22 21 20 19 18 18 19
11 11 10 10 9 5 4 3 2 4 6 6 4 6 7 9 10 10 10 10 8 8 11 12 12 13 14 14 12 12 11 11 12 12 12 11 10 10 10 11 11 10 10 11 13 13 13 14 16 18 19 21 22 23 24 23 21 20 19 19 20 20 20 20 21 22 20 19 19 19 20 21 21 20 20 20 20 20 20 20 19 18 17 17 17
5 6 6 7 5 4 3 3 4 5 6 7 7 7 8 10 12 11 11 11 10 10 13 14 14 13 14 14 13 13 13 13 13 13 14 13 12 11 11 12 11 10 11 12 13 14 14 15 16 19 20 22 23 24 25 24 21 20 18 17 17 18 18 18 18 19 19 18 17 17 18 19 19 19 19 19 19 19 19 19 18 18 17 16 16
1 2 2 5 6 5 5 6 7 8 9 10 11 10 10 11 13 13 13 12 12 11 12 16 16 14 13 14 14 14 14 14 14 14 14 13 12 11 11 12 11 11 11 12 12 14 14 15 16 19 22 23 24 24 25 24 22 21 19 16 15 15 15 16 16 16 16 17 16 16 16 16 17 17 18 18 19 18 18 18 18 17 16 16 15
5 4 4 6 8 7 7 7 10 11 12 13 14 13 12 12 13 15 16 14 13 11 11 17 16 13 14 14 16 16 15 15 14 15 14 13 12 11 11 11 11 11 11 12 13 14 14 14 15 19 23 24 25 25 25 25 23 21 19 16 14 13 14 14 14 14 14 15 16 15 15 14 15 15 16 17 18 18 18 17 17 16 16 15 14
9 8 8 9 10 12 11 11 14 15 15 16 16 16 14 12 13 15 16 16 14 11 11 15 15 13 14 15 16 16 15 13 14 15 15 14 12 12 12 12 13 13 12 12 14 14 14 14 15 19 24 25 26 26 25 25 25 22 19 17 15 13 13 13 13 13 13 14 15 15 15 14 13 13 14 15 16 17 17 16 16 15 15 14 14
8 9 10 12 12 14 14 15 16 18 18 16 17 18 16 12 12 14 16 17 16 13 13 15 15 13 14 15 15 14 13 12 13 14 14 13 12 13 14 14 14 14 13 13 14 15 15 15 16 19 24 26 26 26 26 25 25 23 20 18 15 14 13 13 12 12 12 13 14 14 15 14 13 13 13 14 15 16 16 15 15 15 14 14 13
7 8 9 11 12 12 12 14 15 16 16 14 15 16 15 12 11 13 15 16 15 14 15 15 14 12 12 13 13 13 12 12 13 12 12 10 10 11 14 14 14 14 13 13 15 15 15 16 17 20 23 26 27 27 27 26 26 24 21 19 16 15 14 13 12 11 11 12 12 13 14 14 13 13 12 13 14 14 15 15 14 14 13 13 12
6 7 9 10 12 12 13 14 13 13 12 13 14 13 14 13 12 14 14 14 13 13 15 14 12 11 11 12 12 11 11 12 11 11 13 9 8 10 12 13 13 14 13 14 15 16 15 16 17 20 23 26 26 27 27 27 27 25 23 21 18 16 14 14 13 12 12 11 11 12 13 13 13 12 12 12 12 12 13 13 13 13 12 12 11
6 5 9 11 11 11 12 12 13 13 12 13 12 11 15 15 15 14 12 11 11 13 14 13 12 10 10 11 12 10 9 12 9 8 13 11 8 9 9 12 14 13 12 14 16 16 15 16 18 20 23 25 26 26 27 28 28 27 25 23 20 18 16 15 14 13 12 11 11 10 11 12 11 11 11 11 10 10 10 11 11 11 11 10 9
8 7 8 11 12 12 11 11 12 14 13 12 11 14 17 16 17 14 11 10 10 11 12 11 11 10 10 11 11 9 7 10 7 6 9 10 11 10 9 11 14 13 13 15 16 16 15 16 18 20 23 25 26 26 27 28 29 28 26 24 22 20 17 16 15 14 13 12 11 10 10 10 10 9 9 10 9 9 9 9 10 10 9 9 8
9 9 9 10 12 13 13 12 12 13 14 14 13 16 18 18 19 15 13 12 8 8 10 9 10 10 10 11 11 10 7 7 7 6 7 9 17 15 11 12 14 15 15 15 16 16 16 16 18 20 23 26 27 26 26 27 29 29 27 25 23 21 19 17 15 15 13 12 11 10 9 10 9 8 8 8 8 8 8 8 8 8 8 8 7
7 8 10 11 13 14 14 14 14 14 15 16 14 16 18 18 18 15 14 12 8 6 7 7 9 10 9 10 12 11 8 6 6 9 10 9 17 18 16 18 19 18 16 15 15 16 16 17 18 20 22 25 28 27 26 27 28 29 28 26 24 22 21 19 17 16 15 14 12 11 10 9 9 8 8 7 8 8 8 7 7 7 7 7 6
6 7 8 10 13 14 14 15 16 15 14 14 14 17 17 16 16 14 13 11 9 6 4 6 7 9 8 10 12 11 10 7 8 14 14 10 13 16 19 22 22 18 16 15 15 16 17 17 18 19 21 24 27 29 28 27 27 28 28 27 25 23 22 20 19 17 17 16 14 13 11 10 10 9 9 8 8 8 8 7 7 7 6 6 5
9 8 8 9 11 13 14 16 17 17 15 14 14 17 18 15 15 15 15 15 13 9 6 6 7 9 9 9 11 11 10 11 13 16 16 13 12 13 16 19 21 18 15 14 15 16 17 18 18 19 21 23 26 28 29 28 28 27 27 27 25 24 22 21 20 20 19 18 16 15 13 12 11 11 10 10 10 9 8 7 7 6 6 5 4
12 10 9 10 11 12 13 15 18 18 17 16 15 15 18 19 18 18 19 18 17 13 10 10 9 10 11 9 10 11 11 11 12 15 16 15 14 12 14 16 18 18 17 16 14 15 17 18 18 18 20 23 25 28 29 29 28 27 27 27 25 24 23 22 22 22 21 20 18 17 15 14 13 12 12 11 11 10 9 8 7 6 5 4 3
15 14 12 11 12 12 13 15 18 20 20 19 18 16 16 19 21 21 21 20 19 17 14 12 11 11 12 10 10 11 11 11 12 14 15 16 18 17 16 17 17 17 18 17 16 15 16 17 18 18 20 22 24 27 29 30 29 28 27 26 25 24 24 23 23 23 22 21 20 18 16 15 14 13 12 12 12 11 11 10 9 7 6 5 5
17 16 15 13 13 13 14 14 16 20 22 22 22 19 17 18 20 19 20 20 19 18 16 13 13 13 14 13 11 9 10 11 12 14 15 16 19 19 17 18 17 15 16 17 17 16 15 16 18 18 19 21 23 26 29 30 30 29 28 26 26 25 24 24 24 24 23 22 21 19 17 16 15 14 13 13 13 13 12 12 10 9 8 7 7
17 18 17 15 14 13 14 15 16 18 22 24 24 23 21 20 19 18 20 20 18 18 18 18 17 16 15 15 14 12 10 10 11 13 14 16 19 19 17 16 14 12 12 14 16 16 15 16 18 19 19 20 22 25 28 30 31 30 29 27 26 26 25 24 24 24 23 22 21 20 18 16 15 15 15 14 14 14 13 13 12 11 10 9 9
17 18 18 17 15 14 14 15 16 17 21 24 26 26 25 23 20 20 22 21 19 20 21 24 23 19 18 17 16 15 13 11 11 12 13 15 17 17 17 16 13 11 10 12 14 14 14 15 18 19 20 20 21 23 26 29 31 31 30 29 28 27 26 25 25 24 23 22 21 20 18 16 16 15 15 15 15 15 14 14 13 13 12 12 11
18 18 18 18 17 15 14 14 15 17 19 22 26 28 28 27 24 24 25 24 23 23 23 25 25 22 20 19 19 18 15 13 12 13 14 14 16 18 18 17 15 13 11 12 14 14 14 15 18 20 21 21 21 22 25 28 30 31 31 30 29 28 28 27 26 25 23 22 21 20 18 17 16 16 16 16 16 16 16 15 15 14 13 13 13
16 18 19 19 19 17 16 14 14 17 19 21 24 27 29 30 29 27 27 27 27 26 24 24 25 24 23 22 22 21 18 16 15 15 15 15 17 19 20 19 17 15 14 13 14 15 15 15 17 20 21 21 21 22 23 26 29 31 31 31 30 30 29 28 27 26 24 22 21 20 19 18 17 17 17 17 16 16 16 16 15 14 14 14 13
14 16 18 20 20 19 18 16 15 15 18 20 22 24 28 31 31 30 29 29 29 28 26 24 25 25 25 25 24 23 22 19 18 18 18 18 18 20 21 21 20 18 17 16 17 17 17 17 17 18 21 21 21 21 22 24 27 29 30 31 31 31 30 30 29 27 25 24 22 22 20 19 18 18 18 17 17 17 17 16 15 14 13 13 13
14 15 17 19 20 20 19 19 18 16 17 19 21 22 24 27 31 31 31 30 30 29 28 26 27 28 27 27 27 27 26 23 22 21 20 20 20 21 21 22 22 22 21 20 20 20 19 19 19 18 20 21 21 21 21 22 25 28 29 31 31 31 32 31 31 29 27 26 24 24 22 21 20 19 19 18 17 17 17 16 15 14 13 12 12
14 15 16 17 18 20 20 19 19 19 18 18 20 22 23 24 27 30 32 33 32 31 30 29 29 29 28 29 30 30 30 28 26 23 23 23 22 23 23 22 22 23 24 23 22 21 20 20 20 19 19 21 22 21 21 22 23 26 28 29 30 31 32 32 32 31 30 28 26 26 24 23 21 20 20 19 18 18 17 16 15 13 13 12 12
13 12 13 14 16 18 20 20 20 20 20 20 20 21 22 23 24 26 29 34 35 33 33 32 32 32 31 31 31 32 32 33 30 27 27 26 24 24 25 23 22 24 25 24 23 22 21 20 20 20 20 21 22 22 22 22 23 24 25 27 29 30 32 33 33 33 33 31 29 28 27 25 24 22 22 21 20 19 18 16 15 14 13 12 12
11 9 8 9 12 14 17 19 20 21 21 22 22 21 22 23 24 24 26 31 36 37 35 35 35 35 35 33 32 33 34 35 33 31 29 28 27 25 25 25 25 25 26 25 25 24 23 22 21 20 21 21 23 23 23 23 23 24 25 26 28 29 30 32 33 34 35 34 32 30 29 28 27 25 24 23 21 20 19 17 16 15 14 14 14
9 7 6 5 6 9 12 16 19 21 22 23 23 23 22 22 23 24 25 26 31 36 38 37 36 37 36 34 33 35 36 35 35 34 32 30 30 28 25 26 27 26 27 27 26 25 25 24 23 21 21 22 22 24 24 23 23 23 24 25 27 28 28 30 33 35 36 36 35 33 32 31 29 28 26 25 23 21 20 19 18 17 15 15 15
8 8 7 6 5 5 7 11 15 19 22 24 25 25 25 24 23 24 24 25 27 32 37 39 39 39 38 36 36 37 37 35 36 36 34 33 33 34 31 26 28 28 27 28 27 26 27 26 25 23 22 22 22 23 24 24 24 23 24 25 26 27 27 29 32 34 35 36 36 35 34 33 32 30 28 27 25 23 22 21 20 18 17 17 17
11 12 10 9 8 8 8 9 11 14 18 22 25 27 28 27 26 25 25 25 26 28 33 38 41 42 41 39 38 38 37 35 37 37 36 37 37 39 39 30 27 30 29 29 28 27 28 27 25 24 23 22 22 23 24 25 26 25 25 26 26 27 27 27 30 32 34 35 36 36 36 35 34 32 30 29 28 26 25 24 22 20 19 18 18
15 14 13 11 11 11 11 12 12 12 14 18 22 25 28 30 29 29 27 26 27 28 30 34 38 43 44 43 41 40 39 37 39 39 38 42 41 37 41 35 26 30 32 30 29 28 28 27 26 25 24 23 23 23 24 25 27 27 28 28 28 28 28 28 28 29 32 33 35 36 37 37 36 34 32 31 30 29 28 27 25 23 22 20 20
15 14 14 13 13 13 14 14 15 14 14 15 18 22 25 29 31 31 31 29 28 28 29 32 35 39 44 46 46 43 43 42 41 41 40 45 45 36 37 35 27 30 32 31 30 29 29 28 28 27 26 26 25 24 24 25 27 29 29 29 29 29 29 29 27 27 29 31 33 35 36 37 37 35 33 32 32 31 30 30 29 27 25 23 22
13 14 14 14 15 17 17 18 18 18 17 16 16 18 21 25 29 31 33 33 32 30 30 32 33 36 40 45 48 47 47 46 45 45 44 46 46 38 32 32 30 31 32 33 33 31 30 31 30 29 28 27 26 25 25 26 28 27 27 29 31 31 30 29 27 26 27 29 31 33 35 35 36 35 34 34 33 33 33 32 31 30 28 26 24
13 13 14 15 17 18 20 21 22 20 19 18 17 17 18 21 25 28 32 34 34 33 32 32 33 35 38 41 46 48 50 50 49 48 47 47 44 39 36 36 35 32 32 35 36 34 33 33 32 30 30 28 27 27 27 27 27 26 28 30 32 32 31 29 26 25 26 27 29 31 32 33 34 35 35 34 34 34 34 34 33 32 30 28 26
13 13 14 16 18 19 20 21 22 22 21 20 19 18 18 19 21 24 29 32 34 35 34 34 35 35 37 40 42 46 49 51 53 51 51 50 46 42 39 39 38 33 33 35 37 36 34 34 34 32 30 30 28 27 27 27 27 27 28 29 31 33 32 29 26 25 26 26 27 28 29 31 32 33 35 35 34 35 35 34 34 33 31 29 27
13 13 15 16 18 19 20 21 22 22 22 21 20 19 18 18 19 21 24 28 31 34 35 35 36 37 38 39 40 43 45 48 52 54 54 53 50 47 43 41 42 39 38 37 37 37 36 34 35 33 32 30 28 27 27 27 27 26 27 27 29 31 30 28 28 27 27 26 25 26 27 29 30 31 32 34 34 34 34 34 34 33 32 29 27
13 14 15 17 19 20 22 22 22 23 23 23 22 20 19 19 19 20 22 25 27 30 34 36 37 38 38 39 40 41 43 45 48 52 54 55 54 52 48 45 45 45 44 41 38 38 37 36 36 35 33 32 30 30 29 28 28 27 27 27 27 28 27 28 29 29 28 27 25 25 25 27 28 29 30 31 32 33 33 33 33 33 31 29 27
13 14 16 18 20 22 23 24 25 25 26 26 25 23 21 20 20 20 22 23 25 27 30 34 37 39 40 40 40 41 42 43 44 47 51 53 55 55 54 51 49 48 47 44 41 41 40 40 39 37 36 34 33 32 31 30 29 28 27 26 26 27 27 28 30 30 29 27 25 24 24 25 26 28 29 30 30 31 31 31 32 31 29 28 26
14 15 17 19 21 23 24 26 27 28 29 29 28 26 24 23 22 22 22 23 25 26 28 32 35 37 39 41 41 41 41 42 43 45 47 49 52 55 55 55 53 52 51 47 46 46 44 41 40 39 38 38 37 34 32 32 31 29 27 25 24 25 26 27 28 30 29 28 27 25 24 24 25 26 28 29 29 29 30 30 30 29 27 26 25
15 16 18 20 22 24 25 27 28 30 32 32 30 28 28 27 26 24 23 23 24 25 26 28 32 35 38 40 41 42 42 42 43 44 46 46 48 51 54 56 56 55 54 52 50 50 48 44 41 41 41 41 40 38 36 34 32 30 28 25 23 23 24 25 27 29 30 29 28 27 25 24 24 25 27 28 29 29 29 29 28 27 27 26 25
16 17 19 21 23 25 26 27 29 31 34 34 32 31 31 30 29 28 25 24 24 25 25 26 28 32 35 37 40 42 42 43 43 44 46 46 46 48 51 54 56 57 58 57 55 53 51 48 45 44 45 44 43 41 39 36 33 32 30 27 24 23 24 26 27 28 30 29 28 27 26 25 23 24 26 27 29 29 28 29 28 27 26 26 25
17 18 20 22 24 25 26 27 29 32 35 36 35 34 34 33 31 29 28 26 25 25 25 25 26 28 32 34 37 40 42 43 44 45 46 46 46 47 49 51 53 56 58 59 59 58 55 52 48 47 48 48 46 43 41 39 36 34 32 29 26 24 24 25 25 25 27 29 28 26 26 26 24 25 27 28 28 28 29 29 28 27 26 25 25
Wind_Direction
253 235 217 231 245 222 212 259 293 314 312 320 337 16 29 18 23 9 353 335 330 333 310 293 279 245 215 220 214 188 170 168 172 174 171 166 154 147 134 152 171 164 160 163 174 179 175 167 157 155 147 143 144 142 141 141 143 146 143 133 131 128 121 117 114 112 111 109 106 107 109 110 111 115 118 116 112 109 107 106 105 103 101 101 101
228 229 224 227 241 226 248 279 286 304 315 322 334 360 18 12 16 13 360 340 336 332 313 297 276 254 230 226 220 199 180 176 177 174 167 165 152 155 149 162 184 180 183 178 175 172 167 160 154 151 142 142 145 144 142 144 147 150 145 136 133 129 123 120 117 115 112 111 111 111 111 110 112 118 120 116 113 110 109 108 106 104 102 102 102
205 218 223 201 173 182 219 284 288 292 297 304 320 338 360 6 3 2 358 340 334 327 308 294 276 256 240 235 229 210 201 202 196 189 175 173 172 174 170 178 190 192 198 192 175 161 157 154 152 146 138 141 144 144 144 147 150 151 147 138 134 130 125 122 120 118 115 114 113 111 110 111 115 121 121 118 114 112 111 109 107 105 103 104 104
222 226 219 186 178 173 179 266 264 277 283 287 287 297 332 357 352 340 342 326 322 317 301 291 277 256 243 239 238 227 221 226 221 219 206 194 194 194 189 191 199 201 201 200 184 151 154 152 148 143 137 141 140 143 147 150 151 151 148 139 135 131 126 124 123 122 119 117 115 111 111 113 119 123 123 119 115 113 112 110 107 106 105 106 106
231 246 243 213 196 176 209 230 226 238 253 267 263 254 278 311 323 327 326 313 310 301 290 285 276 257 243 239 239 238 235 236 234 234 227 215 206 208 207 202 209 210 203 202 190 153 153 148 144 141 139 143 138 143 149 150 150 150 149 140 136 133 128 127 126 125 123 119 116 113 115 117 122 126 124 119 116 115 113 111 109 107 107 107 107
225 240 233 208 204 206 215 213 216 224 234 253 259 247 231 257 280 307 313 307 306 291 279 275 270 256 242 237 237 238 234 230 231 232 227 225 217 216 220 217 217 210 203 201 184 155 150 145 144 142 144 145 138 144 149 149 149 151 149 141 137 135 131 130 129 128 125 121 118 117 119 120 124 128 125 120 118 116 114 112 109 108 108 109 109
219 224 210 197 209 202 198 211 229 228 239 255 265 264 238 242 266 289 291 302 306 296 286 271 264 256 241 232 233 235 232 228 230 232 228 227 226 227 227 225 224 210 199 195 175 156 150 145 144 144 148 147 141 147 150 150 151 151 149 142 139 138 133 132 131 130 128 124 120 120 123 123 126 130 126 122 119 117 115 112 109 109 110 110 110
215 211 191 171 188 193 202 226 237 228 234 246 261 269 256 249 259 276 280 299 302 296 294 277 262 254 241 231 231 232 233 237 237 242 246 241 233 231 233 228 225 213 198 188 171 159 153 148 145 147 152 148 146 151 152 152 153 153 150 144 141 139 135 134 132 131 128 125 122 124 126 126 129 131 128 123 121 119 116 113 110 110 111 112 111
214 210 199 164 167 196 216 215 217 222 225 231 254 264 259 251 250 261 271 280 282 287 296 289 275 259 246 235 233 232 232 240 242 248 257 254 242 231 232 229 221 214 199 183 170 162 155 151 149 150 152 151 152 154 153 152 154 156 153 147 142 140 138 136 133 131 130 126 124 126 129 129 131 133 130 126 123 120 118 115 113 112 113 114 113
213 205 206 193 181 195 211 204 199 220 225 232 271 277 264 249 246 250 256 259 265 284 298 294 285 266 250 240 235 236 236 239 243 248 253 254 246 232 228 228 219 211 201 185 173 165 159 157 155 153 154 154 156 155 151 152 156 159 157 150 144 141 140 138 135 133 132 127 123 126 130 131 133 135 133 129 125 121 119 117 115 114 114 115 114
213 203 207 206 193 199 205 190 204 232 243 252 280 295 274 249 246 246 248 253 260 275 283 285 280 265 253 244 235 234 237 239 242 246 251 251 246 234 225 226 218 208 204 193 177 169 164 164 160 154 156 158 157 155 152 155 159 161 161 153 145 142 141 140 137 134 132 127 123 127 132 134 134 134 134 131 126 122 120 119 118 116 116 117 116
221 224 218 205 190 208 221 215 231 244 253 262 270 287 281 254 247 243 243 251 254 257 267 278 278 265 254 250 243 235 235 236 237 241 247 247 245 236 223 221 218 208 206 199 181 174 171 168 164 156 159 161 158 156 154 158 161 160 163 157 148 143 140 139 137 135 132 128 124 127 132 134 134 134 135 133 128 124 122 121 120 120 119 120 119
181 264 210 197 193 215 234 227 235 249 254 258 261 274 281 262 251 243 239 246 252 252 260 271 272 266 257 252 248 241 235 234 234 237 243 247 246 238 225 221 217 212 209 202 188 180 176 171 167 162 163 162 159 158 158 161 162 161 164 162 152 143 138 138 137 137 134 128 124 125 129 132 134 135 135 133 130 126 123 121 121 122 122 122 121
172 157 165 192 190 210 227 222 229 245 253 256 254 260 270 264 255 248 243 247 254 251 252 260 260 260 256 250 248 244 238 237 237 236 239 244 246 238 227 221 215 213 211 203 193 184 178 174 173 169 166 164 161 161 161 163 164 164 164 163 158 146 140 140 141 141 138 130 126 127 128 130 133 135 135 133 131 127 124 121 122 123 123 122 122
189 168 175 186 189 203 210 219 226 232 242 251 252 251 256 260 257 254 250 250 253 248 247 253 253 253 252 250 248 245 242 238 238 238 238 240 239 235 226 217 213 212 209 202 195 188 181 177 179 176 170 167 164 164 165 165 166 167 165 163 162 153 146 146 146 147 143 136 131 130 130 130 131 135 135 132 130 128 124 122 122 122 123 122 122
207 183 179 183 195 208 211 220 225 231 238 244 249 247 252 263 262 257 252 249 249 247 247 246 246 247 248 250 248 245 240 233 236 236 236 239 231 227 225 216 212 211 206 202 196 190 185 181 183 181 176 171 168 166 165 167 169 170 168 167 166 160 154 151 152 155 152 146 139 134 133 133 133 135 135 132 130 128 126 124 123 122 123 122 122
234 208 191 187 198 209 217 223 227 237 241 241 246 244 247 262 263 255 251 247 248 246 245 241 239 242 243 250 252 247 238 232 237 230 220 231 232 224 222 214 210 212 203 198 197 193 189 185 185 184 181 176 171 168 166 167 172 172 171 172 171 166 161 157 158 161 161 156 145 136 134 134 134 135 135 135 132 129 128 126 124 123 123 124 123
255 228 211 202 202 209 220 226 231 241 245 244 247 239 237 251 254 251 251 250 254 250 245 241 238 238 239 246 248 250 247 237 235 228 211 203 222 223 218 218 212 210 202 195 195 193 191 188 187 186 184 181 174 170 167 169 174 176 174 174 176 173 169 166 165 166 166 162 152 140 133 130 131 134 135 136 134 130 129 128 126 125 125 126 124
268 244 225 218 212 215 220 222 225 231 240 244 249 238 231 244 249 247 249 250 256 255 250 244 240 236 234 239 239 246 249 238 224 226 219 188 198 227 219 224 221 210 199 193 192 192 194 192 191 188 186 185 178 172 170 171 175 180 179 178 179 178 176 174 172 173 172 166 159 146 134 129 129 132 134 136 135 132 131 130 129 127 127 128 127
268 263 242 230 224 224 223 225 222 221 230 239 246 240 230 230 237 239 233 237 249 253 253 248 244 239 231 232 233 235 237 242 234 230 233 183 186 227 223 216 219 215 203 192 189 190 196 197 195 191 188 187 181 175 174 175 177 181 184 182 182 181 181 179 179 180 179 174 167 156 143 134 132 132 134 136 138 138 138 135 132 131 131 132 131
269 268 256 242 232 227 226 229 231 225 226 229 231 235 231 220 223 231 216 217 239 252 259 255 252 247 236 234 231 228 219 239 248 252 261 199 189 206 211 213 218 218 208 194 188 190 197 201 199 195 191 188 184 179 178 180 179 182 187 187 185 185 184 183 184 184 184 183 178 171 160 148 145 143 141 143 146 150 150 145 139 138 139 141 140
270 273 262 251 240 232 226 225 231 229 226 230 223 224 235 229 226 236 221 219 241 250 272 273 264 259 244 238 235 226 215 221 246 261 270 226 200 199 202 214 220 216 208 197 189 191 198 203 201 199 196 191 187 182 182 185 182 183 188 190 189 189 189 187 188 189 189 189 187 184 177 167 161 156 155 157 161 165 163 158 151 149 151 151 151
265 272 268 260 249 239 230 223 226 228 228 233 227 221 232 230 225 235 233 238 253 244 262 281 278 272 251 238 240 231 221 214 217 241 258 253 231 220 212 216 222 216 206 201 194 193 199 205 203 201 200 196 191 185 185 189 187 186 189 193 192 192 193 192 192 194 195 195 193 191 187 183 177 170 170 172 177 180 175 171 166 161 164 164 164
266 265 269 271 263 249 236 228 227 227 225 230 230 226 228 227 220 222 228 237 247 240 232 248 268 274 261 239 244 242 234 229 223 238 255 264 264 246 230 229 230 223 214 211 202 197 201 206 204 201 202 201 196 190 189 191 191 190 191 195 195 194 195 196 197 199 201 201 198 195 192 191 188 182 180 183 189 190 183 182 182 177 179 177 178
271 267 266 273 274 263 246 234 231 228 221 222 230 231 227 229 228 218 220 229 236 236 227 231 246 260 262 243 239 246 248 248 240 244 249 255 264 249 234 237 232 226 229 228 215 204 204 208 206 202 203 203 200 195 194 195 194 194 195 197 197 196 197 198 201 202 204 204 202 200 198 197 195 191 188 191 197 198 193 194 198 197 199 202 208
277 275 269 270 271 266 255 241 235 232 224 218 224 230 227 230 232 223 222 228 231 234 228 229 240 249 258 253 240 241 250 255 243 238 238 243 256 249 235 236 233 229 233 233 226 215 208 212 212 206 204 205 204 199 198 199 198 197 198 199 199 199 198 200 202 204 205 206 206 204 202 202 201 198 197 198 203 203 203 206 208 210 214 221 232
283 281 275 270 268 262 256 247 239 235 230 222 220 224 227 231 234 226 225 230 230 235 234 236 248 251 257 263 262 252 248 252 243 238 234 230 243 252 245 240 238 232 230 230 229 223 214 214 217 213 207 206 207 203 200 202 202 200 200 200 200 201 201 201 204 205 206 207 207 206 205 205 204 203 203 204 208 208 208 211 212 216 221 227 238
290 287 281 273 267 259 252 249 243 238 233 228 223 222 224 230 233 228 228 232 230 231 235 236 241 246 250 257 264 263 254 251 246 243 241 235 241 253 254 250 245 236 234 234 232 229 221 217 217 216 211 207 207 206 203 204 205 204 203 203 202 203 203 204 207 207 208 208 209 208 206 208 207 205 205 206 210 211 211 213 215 219 223 230 239
296 291 287 280 271 260 250 245 244 242 237 231 227 225 225 227 228 228 228 230 229 228 231 231 229 234 240 245 253 257 251 246 246 244 245 244 245 250 254 257 253 248 245 242 239 234 228 221 219 216 214 211 207 206 205 206 207 206 206 205 204 204 204 206 209 211 210 210 211 209 207 209 209 207 206 206 209 213 214 216 218 222 227 235 242
297 290 287 283 276 268 256 246 242 242 241 236 231 228 229 228 225 225 226 226 227 230 234 231 225 228 236 242 247 251 248 241 242 244 246 245 243 246 251 254 255 257 253 247 246 241 233 226 223 219 216 213 210 206 205 206 208 208 207 207 206 205 205 206 211 213 213 212 213 212 209 209 211 210 208 207 210 214 216 219 222 226 233 239 246
299 289 285 283 280 276 269 257 246 241 242 241 236 232 232 231 227 225 225 226 227 230 236 234 227 227 234 240 244 248 249 244 244 245 248 247 243 245 247 248 249 253 253 251 251 246 240 232 227 225 222 217 214 209 205 206 208 210 209 208 208 208 207 208 211 215 216 215 217 217 213 211 213 214 212 210 212 216 218 222 225 230 237 243 250
305 293 283 281 281 280 279 273 260 247 243 243 242 238 236 236 233 228 225 226 228 231 235 235 233 231 232 238 241 244 246 245 248 250 250 249 248 247 245 243 242 246 250 252 253 251 246 238 232 230 229 225 220 214 208 205 207 210 211 210 209 210 210 210 211 215 218 218 219 221 218 213 213 215 216 214 214 219 221 224 228 231 239 246 253
311 305 288 280 280 279 278 277 272 261 249 245 245 244 242 241 239 234 228 227 228 230 232 233 236 236 234 237 237 239 243 243 246 251 251 250 251 250 248 244 241 242 246 250 253 254 249 242 236 232 233 231 227 222 215 207 206 208 210 211 211 212 212 212 213 215 219 221 222 225 223 218 215 216 219 218 217 221 224 226 230 234 241 249 256
315 315 301 285 278 275 275 274 273 269 260 252 248 247 246 244 243 239 232 228 227 227 229 231 235 237 238 240 239 239 241 242 244 245 247 249 249 248 249 247 244 243 243 246 250 253 250 243 237 234 234 234 231 227 221 213 208 208 209 211 213 214 215 214 215 216 219 222 224 226 228 224 219 218 221 222 221 225 228 230 234 239 245 252 259
323 323 311 295 280 274 274 273 271 270 266 260 254 251 248 247 246 243 236 231 229 227 226 229 234 236 237 239 241 242 242 243 243 242 245 249 248 245 246 247 245 245 243 242 244 248 250 244 238 235 234 235 233 229 225 219 212 209 208 210 212 215 217 218 217 218 220 222 224 227 229 229 224 221 223 225 226 228 232 235 240 245 250 256 262
329 328 321 306 289 277 274 273 271 269 268 265 261 256 252 249 247 246 241 234 232 231 228 229 232 236 237 237 239 242 243 244 244 243 246 250 249 245 244 244 244 244 243 240 240 244 247 245 239 236 235 235 234 231 227 223 218 214 211 211 212 215 218 220 220 220 221 222 223 226 229 230 228 226 226 228 229 232 236 241 245 249 254 260 265
333 321 323 318 301 281 271 269 268 267 265 265 264 261 257 253 250 248 246 240 235 233 231 230 232 236 238 238 239 240 240 242 244 243 243 246 249 249 243 240 242 243 242 241 241 242 244 244 241 238 236 235 234 233 230 226 222 218 216 215 214 214 217 221 222 223 223 223 224 226 228 230 231 230 231 232 233 235 239 244 248 251 256 261 266
341 318 314 315 311 291 273 265 262 262 261 261 262 262 260 257 253 250 247 245 241 237 234 232 233 236 238 237 237 241 241 242 245 244 241 241 244 246 241 232 236 240 241 241 243 243 243 243 242 240 238 236 235 235 233 230 225 221 219 218 217 216 216 221 224 225 225 224 224 226 228 231 232 233 234 236 238 239 242 246 249 252 255 260 265
337 324 316 314 311 306 302 290 275 266 262 260 260 261 262 260 256 253 249 246 244 242 238 235 234 236 239 238 237 240 242 243 245 244 243 239 235 238 235 226 228 234 237 239 242 244 244 244 243 241 241 239 236 235 235 233 229 225 222 221 220 218 217 220 224 226 227 225 225 226 229 231 234 235 236 239 241 244 246 248 251 253 256 259 264
333 329 324 319 313 310 309 304 297 286 273 264 259 258 259 261 259 256 252 248 245 244 242 239 237 236 238 239 239 240 240 240 242 242 244 243 239 235 227 221 224 230 233 236 240 245 247 248 248 245 243 241 238 235 235 236 234 230 226 223 222 221 219 219 223 227 229 228 225 226 228 231 234 236 238 240 243 246 249 251 253 255 257 259 264
334 335 332 327 321 318 314 309 307 301 289 277 267 259 255 256 258 258 256 252 248 245 243 241 239 238 238 239 239 240 240 240 240 239 241 243 246 242 224 219 228 233 234 237 239 244 248 250 250 247 244 241 239 237 236 236 236 234 232 229 226 224 222 220 221 226 231 231 228 227 228 231 233 236 238 240 243 246 248 251 254 256 258 260 263
332 336 334 330 325 322 319 316 314 309 300 290 282 273 260 252 252 255 256 255 252 247 245 244 241 240 240 239 239 239 240 242 242 240 238 239 246 247 234 231 239 239 239 241 240 242 245 248 248 247 246 242 239 238 237 236 236 236 236 234 231 228 226 222 220 224 230 232 231 230 229 230 233 235 237 238 240 243 246 249 252 255 257 259 261
326 330 330 325 321 320 319 318 315 312 308 301 296 289 276 259 249 248 251 254 254 251 247 246 244 242 241 241 241 239 239 241 243 244 242 241 244 245 240 239 241 238 237 241 243 242 243 247 248 248 248 246 241 239 238 238 236 235 234 234 233 231 229 226 223 225 230 233 233 232 231 231 233 235 236 236 237 240 243 246 249 252 254 256 258
319 322 322 319 318 319 320 318 316 315 314 311 307 302 291 275 258 248 245 246 250 252 251 248 246 244 243 242 243 242 240 240 242 244 245 246 246 245 243 241 239 237 234 237 242 242 242 246 249 250 250 249 245 242 241 242 239 236 236 235 233 232 231 229 226 226 229 233 234 234 233 232 233 234 235 236 236 238 240 243 246 249 251 253 255
315 318 318 320 323 327 327 323 319 317 317 315 312 308 299 286 272 260 251 245 244 247 249 249 248 247 245 244 244 244 243 242 241 243 245 246 246 245 243 242 241 242 239 235 238 242 242 244 248 251 252 253 252 249 247 246 243 240 240 240 237 235 232 229 228 228 229 232 234 235 234 233 233 235 236 237 237 238 239 240 243 246 248 249 252
314 317 320 326 330 332 331 327 323 320 318 314 310 308 302 292 281 270 263 255 248 245 245 246 248 249 249 247 246 247 246 245 243 243 243 244 245 245 243 241 242 245 246 242 238 240 243 244 247 251 252 253 254 254 251 248 246 242 241 241 240 238 233 227 226 228 230 232 234 237 236 235 235 237 238 238 239 239 240 241 242 244 245 247 250
316 319 323 328 329 330 329 328 327 324 320 316 311 307 303 298 289 278 271 265 257 251 247 245 245 247 249 250 250 249 250 249 247 245 244 244 244 244 244 242 241 243 247 247 240 239 242 242 244 249 254 255 252 253 254 252 248 244 242 242 241 238 234 228 226 226 228 230 232 237 238 238 237 238 239 239 239 240 241 241 242 243 244 246 249
317 319 324 326 325 326 327 328 329 326 323 319 314 310 307 302 295 285 276 272 266 259 253 249 247 246 246 248 250 251 252 252 251 250 248 246 244 244 244 243 243 241 244 246 242 242 244 243 242 244 249 254 253 252 254 254 251 247 244 244 242 240 236 232 229 227 226 225 225 229 234 238 239 239 240 240 239 240 240 241 241 242 243 245 247
314 317 322 324 324 324 327 328 328 325 322 319 316 314 311 307 300 290 281 275 270 265 259 254 251 249 247 247 248 250 252 253 253 253 252 250 247 245 244 243 243 242 241 242 242 244 246 245 246 246 246 249 252 254 254 252 251 250 246 244 244 241 237 233 231 229 227 225 224 223 225 232 237 240 240 241 241 241 240 240 240 240 242 244 246
312 315 319 321 323 323 325 326 324 322 319 316 316 316 314 310 303 295 286 279 273 267 263 259 254 252 251 249 248 249 250 251 253 254 254 253 251 249 246 243 243 243 242 241 241 244 246 245 246 246 246 247 248 252 255 253 250 250 246 243 243 241 236 233 232 230 228 225 225 225 225 227 231 239 243 243 243 243 241 240 238 238 241 245 247
312 315 318 319 321 322 323 323 320 317 315 314 315 316 314 311 305 297 290 283 277 270 264 260 255 252 251 251 251 250 250 250 251 252 253 254 253 251 249 246 243 242 242 241 241 243 245 246 246 244 244 245 245 247 251 251 248 248 246 241 240 240 237 234 232 232 231 228 228 230 232 231 227 232 241 245 244 242 241 239 237 237 240 244 247
Height
3164 3163 3162 3162 3163 3165 3164 3163 3162 3163 3164 3163 3163 3162 3163 3163 3163 3163 3163 3163 3164 3164 3165 3165 3166 3166 3167 3168 3168 3168 3168 3167 3166 3165 3164 3164 3165 3165 3165 3166 3167 3168 3169 3169 3170 3171 3172 3173 3174 3176 3177 3179 3179 3180 3181 3182 3183 3185 3185 3184 3185 3186 3186 3187 3188 3189 3190 3191 3193 3194 3195 3196 3197 3198 3198 3198 3198 3198 3198 3198 3198 3198 3198 3198 3199
3163 3162 3162 3162 3164 3165 3164 3164 3164 3164 3165 3164 3164 3164 3163 3164 3164 3164 3164 3164 3164 3164 3165 3166 3166 3166 3167 3168 3169 3169 3169 3168 3167 3166 3165 3165 3165 3165 3166 3166 3167 3168 3169 3170 3171 3171 3172 3174 3175 3177 3178 3180 3180 3181 3182 3183 3185 3186 3187 3185 3186 3187 3187 3189 3189 3190 3191 3192 3194 3195 3196 3197 3198 3199 3200 3200 3200 3200 3200 3200 3200 3200 3200 3200 3200
3162 3162 3161 3161 3162 3163 3164 3165 3166 3166 3165 3165 3165 3164 3164 3164 3164 3165 3164 3165 3165 3165 3166 3166 3167 3167 3167 3168 3169 3169 3170 3169 3169 3167 3166 3166 3166 3166 3166 3167 3168 3168 3169 3170 3171 3172 3173 3174 3176 3177 3179 3180 3181 3182 3183 3184 3186 3187 3188 3187 3187 3188 3188 3190 3190 3191 3192 3193 3195 3195 3196 3198 3200 3201 3202 3202 3201 3201 3201 3201 3201 3201 3201 3201 3202
3161 3161 3161 3160 3161 3163 3164 3165 3166 3166 3165 3165 3165 3165 3165 3164 3164 3165 3165 3166 3166 3166 3167 3167 3167 3167 3167 3168 3169 3170 3170 3170 3169 3169 3168 3167 3166 3167 3167 3168 3168 3169 3169 3170 3172 3172 3174 3175 3177 3178 3179 3180 3181 3183 3184 3185 3187 3189 3190 3188 3188 3189 3189 3190 3191 3192 3193 3194 3195 3196 3198 3199 3201 3202 3203 3203 3203 3203 3203 3203 3203 3202 3203 3203 3203
3161 3161 3160 3160 3162 3164 3164 3164 3165 3165 3166 3166 3165 3164 3164 3164 3164 3164 3165 3166 3166 3167 3167 3168 3167 3167 3168 3168 3169 3170 3170 3170 3170 3169 3168 3168 3167 3167 3168 3168 3169 3169 3170 3171 3172 3173 3174 3176 3178 3179 3180 3181 3182 3184 3185 3186 3188 3190 3191 3189 3189 3190 3190 3191 3192 3194 3194 3195 3195 3197 3199 3200 3202 3203 3204 3205 3205 3205 3205 3204 3204 3204 3204 3204 3205
3160 3160 3160 3160 3162 3164 3164 3163 3164 3165 3166 3165 3165 3164 3163 3163 3163 3163 3164 3166 3167 3167 3167 3168 3168 3168 3168 3168 3169 3169 3170 3170 3170 3170 3169 3168 3168 3168 3169 3169 3169 3170 3170 3172 3173 3174 3175 3176 3178 3179 3180 3181 3182 3184 3186 3187 3189 3191 3192 3191 3191 3191 3191 3192 3194 3195 3195 3195 3196 3198 3199 3201 3203 3204 3205 3206 3206 3206 3206 3206 3206 3206 3206 3206 3206
3159 3159 3159 3160 3161 3162 3163 3163 3163 3164 3165 3165 3164 3163 3163 3162 3162 3163 3164 3165 3166 3168 3168 3168 3168 3168 3168 3168 3169 3169 3170 3170 3170 3170 3169 3169 3169 3169 3169 3169 3170 3170 3171 3172 3173 3174 3175 3177 3178 3179 3180 3182 3183 3185 3187 3188 3190 3192 3193 3192 3192 3193 3192 3193 3195 3196 3196 3196 3197 3199 3200 3202 3204 3205 3206 3207 3207 3207 3207 3207 3207 3207 3207 3208 3208
3159 3159 3159 3160 3160 3160 3161 3162 3162 3163 3164 3164 3164 3163 3162 3162 3162 3162 3163 3164 3166 3168 3168 3168 3169 3169 3169 3168 3168 3169 3169 3170 3170 3170 3169 3169 3169 3169 3170 3170 3170 3171 3172 3173 3174 3175 3176 3177 3178 3179 3181 3182 3183 3185 3187 3189 3191 3193 3194 3194 3194 3195 3194 3194 3196 3197 3197 3198 3199 3200 3201 3202 3204 3206 3207 3208 3208 3208 3208 3209 3209 3209 3209 3209 3209
3158 3159 3160 3160 3160 3159 3157 3159 3161 3163 3164 3164 3164 3163 3162 3162 3161 3162 3162 3163 3166 3167 3168 3169 3169 3169 3169 3168 3168 3169 3169 3169 3170 3170 3169 3169 3169 3170 3170 3170 3171 3172 3173 3174 3175 3175 3177 3177 3178 3179 3181 3182 3184 3186 3188 3190 3192 3194 3195 3195 3195 3196 3197 3196 3197 3198 3199 3200 3201 3201 3202 3203 3204 3206 3207 3208 3209 3209 3209 3210 3210 3211 3211 3211 3211
3158 3158 3159 3159 3159 3158 3156 3157 3159 3162 3163 3163 3163 3163 3162 3162 3161 3161 3161 3162 3164 3166 3167 3168 3169 3169 3169 3169 3168 3168 3169 3169 3169 3169 3169 3169 3170 3170 3171 3171 3171 3173 3173 3174 3175 3176 3177 3178 3178 3179 3181 3183 3184 3187 3189 3190 3193 3195 3196 3196 3197 3198 3199 3199 3198 3199 3201 3202 3202 3203 3203 3204 3205 3206 3208 3209 3209 3210 3210 3211 3212 3212 3213 3213 3213
3157 3157 3157 3158 3159 3159 3159 3160 3161 3161 3162 3162 3162 3162 3162 3162 3162 3161 3161 3161 3163 3164 3166 3167 3169 3169 3169 3169 3169 3168 3169 3169 3169 3169 3169 3169 3169 3170 3171 3171 3172 3173 3174 3175 3176 3177 3178 3178 3179 3180 3182 3183 3185 3187 3189 3191 3193 3196 3198 3198 3199 3199 3200 3201 3201 3201 3202 3203 3204 3204 3205 3205 3206 3207 3208 3209 3210 3210 3211 3212 3213 3213 3214 3215 3215
3155 3156 3157 3158 3159 3160 3160 3161 3162 3162 3162 3162 3162 3162 3162 3162 3161 3161 3161 3160 3161 3163 3165 3166 3168 3169 3168 3168 3168 3168 3168 3168 3168 3169 3168 3168 3169 3170 3171 3171 3172 3174 3175 3176 3177 3178 3178 3179 3179 3181 3182 3184 3186 3188 3190 3192 3194 3196 3199 3200 3201 3202 3202 3203 3203 3203 3204 3205 3206 3206 3206 3206 3207 3208 3208 3210 3211 3211 3212 3213 3214 3214 3215 3216 3216
3153 3154 3156 3157 3157 3158 3158 3160 3162 3162 3162 3161 3161 3161 3161 3161 3160 3161 3161 3160 3161 3162 3164 3166 3167 3168 3168 3167 3167 3167 3167 3167 3168 3168 3168 3168 3169 3170 3171 3172 3173 3174 3175 3176 3178 3178 3179 3179 3180 3181 3183 3184 3187 3189 3190 3192 3194 3196 3199 3201 3203 3203 3204 3205 3206 3206 3206 3206 3207 3207 3208 3208 3208 3209 3209 3210 3211 3212 3213 3214 3215 3215 3216 3216 3216
3152 3152 3154 3155 3155 3155 3157 3159 3162 3162 3161 3160 3160 3161 3161 3160 3160 3160 3161 3161 3161 3162 3163 3166 3167 3167 3167 3167 3166 3166 3166 3166 3167 3167 3167 3168 3169 3170 3171 3172 3173 3174 3175 3177 3178 3179 3180 3180 3181 3182 3183 3185 3187 3189 3191 3193 3194 3196 3198 3201 3203 3204 3205 3207 3207 3208 3208 3208 3208 3208 3209 3209 3209 3210 3210 3211 3212 3213 3214 3215 3216 3216 3216 3217 3217
3151 3152 3153 3154 3155 3155 3156 3159 3160 3159 3158 3158 3159 3160 3160 3160 3160 3160 3161 3161 3161 3162 3163 3166 3166 3166 3166 3166 3166 3165 3165 3166 3166 3167 3168 3168 3169 3169 3170 3171 3172 3174 3175 3177 3178 3179 3180 3181 3182 3183 3184 3185 3187 3189 3191 3193 3195 3196 3199 3201 3203 3204 3205 3207 3208 3209 3210 3210 3209 3210 3210 3210 3210 3211 3212 3212 3213 3214 3215 3216 3216 3217 3217 3217 3218
3150 3151 3152 3153 3155 3156 3157 3157 3158 3157 3156 3157 3158 3159 3160 3160 3160 3160 3161 3161 3161 3162 3163 3164 3165 3166 3166 3165 3166 3166 3166 3165 3166 3167 3167 3168 3169 3169 3170 3171 3172 3173 3175 3177 3178 3180 3181 3181 3182 3184 3185 3186 3187 3189 3192 3194 3195 3197 3199 3201 3202 3204 3205 3207 3209 3210 3210 3211 3211 3211 3211 3211 3211 3212 3213 3213 3214 3215 3216 3217 3217 3218 3218 3218 3218
3149 3151 3152 3153 3154 3156 3156 3156 3156 3155 3156 3156 3157 3158 3159 3161 3160 3159 3159 3159 3160 3161 3162 3163 3164 3165 3165 3165 3165 3166 3165 3165 3165 3166 3167 3168 3169 3169 3170 3170 3171 3173 3175 3177 3179 3180 3181 3181 3183 3184 3185 3186 3187 3189 3192 3194 3196 3197 3198 3201 3202 3204 3205 3207 3208 3210 3211 3211 3212 3212 3212 3212 3212 3213 3214 3214 3215 3216 3217 3217 3218 3218 3218 3219 3219
3148 3150 3151 3152 3153 3154 3155 3155 3154 3154 3154 3155 3156 3158 3159 3160 3160 3158 3158 3159 3159 3160 3161 3162 3163 3164 3164 3164 3165 3165 3165 3165 3165 3166 3167 3168 3170 3170 3170 3170 3171 3172 3174 3176 3178 3180 3181 3182 3183 3184 3186 3187 3188 3190 3192 3194 3196 3197 3198 3200 3202 3204 3205 3207 3208 3210 3211 3212 3213 3213 3213 3213 3213 3214 3215 3216 3217 3217 3218 3218 3218 3219 3219 3219 3220
3147 3148 3150 3151 3152 3152 3153 3153 3153 3153 3153 3153 3155 3156 3156 3158 3159 3158 3158 3158 3159 3159 3159 3161 3162 3163 3163 3163 3164 3165 3166 3165 3166 3167 3167 3168 3171 3171 3171 3171 3172 3173 3174 3176 3178 3180 3181 3182 3183 3184 3186 3188 3189 3191 3193 3194 3196 3197 3198 3199 3201 3203 3205 3207 3208 3210 3211 3212 3213 3214 3214 3215 3215 3215 3216 3217 3218 3219 3219 3219 3219 3220 3220 3220 3220
3145 3146 3148 3149 3150 3151 3152 3152 3152 3152 3152 3152 3153 3153 3153 3155 3157 3158 3158 3157 3158 3158 3158 3160 3161 3162 3163 3163 3163 3164 3165 3164 3165 3168 3168 3170 3172 3171 3171 3171 3171 3173 3174 3176 3177 3179 3181 3182 3183 3184 3185 3187 3190 3192 3193 3194 3196 3197 3199 3199 3201 3202 3204 3206 3208 3210 3212 3213 3214 3215 3216 3216 3217 3217 3218 3218 3219 3220 3220 3220 3220 3221 3221 3221 3221
3145 3145 3146 3147 3148 3150 3151 3151 3151 3151 3151 3151 3151 3151 3153 3155 3156 3157 3157 3157 3158 3158 3158 3159 3160 3161 3162 3162 3163 3164 3164 3164 3165 3167 3169 3171 3172 3171 3172 3171 3171 3172 3174 3175 3177 3178 3180 3182 3183 3184 3185 3187 3190 3192 3194 3195 3196 3197 3199 3200 3201 3202 3204 3206 3208 3210 3212 3214 3215 3216 3217 3217 3218 3219 3219 3219 3220 3220 3220 3221 3221 3222 3222 3222 3222
3144 3144 3144 3145 3146 3148 3149 3150 3149 3150 3150 3150 3151 3151 3152 3154 3156 3157 3158 3158 3158 3158 3158 3158 3159 3161 3162 3163 3163 3163 3164 3164 3165 3166 3168 3171 3172 3171 3172 3172 3172 3172 3173 3174 3176 3178 3180 3181 3182 3184 3185 3186 3189 3192 3194 3195 3196 3197 3199 3200 3201 3203 3204 3206 3208 3210 3212 3213 3214 3216 3217 3218 3219 3219 3220 3220 3220 3220 3221 3221 3222 3222 3222 3222 3222
3143 3143 3143 3143 3144 3146 3148 3148 3148 3149 3149 3150 3151 3151 3151 3153 3156 3158 3159 3160 3160 3159 3158 3158 3159 3160 3163 3164 3163 3163 3164 3165 3165 3165 3166 3170 3172 3171 3172 3172 3173 3173 3173 3174 3175 3177 3179 3180 3182 3183 3185 3187 3189 3191 3193 3195 3197 3198 3199 3200 3202 3203 3205 3206 3208 3209 3211 3212 3214 3215 3216 3217 3218 3219 3220 3220 3220 3220 3221 3221 3222 3222 3222 3222 3222
3141 3142 3142 3142 3142 3144 3146 3147 3147 3147 3149 3149 3150 3151 3151 3152 3155 3158 3158 3158 3159 3158 3157 3158 3159 3160 3162 3163 3163 3163 3164 3166 3166 3166 3167 3169 3171 3172 3171 3172 3172 3173 3174 3174 3175 3177 3179 3180 3182 3183 3184 3186 3189 3191 3192 3194 3196 3198 3199 3200 3202 3203 3205 3206 3207 3208 3210 3211 3212 3214 3216 3217 3218 3219 3219 3220 3220 3220 3221 3222 3222 3222 3223 3223 3223
3139 3140 3140 3140 3141 3142 3143 3145 3145 3146 3147 3148 3148 3149 3150 3151 3152 3155 3155 3155 3156 3156 3156 3157 3158 3159 3160 3161 3162 3163 3164 3166 3166 3167 3168 3168 3169 3171 3171 3171 3172 3173 3174 3175 3176 3177 3178 3179 3181 3183 3184 3185 3188 3190 3192 3193 3195 3197 3199 3201 3202 3204 3205 3206 3207 3208 3209 3210 3211 3213 3214 3216 3217 3218 3219 3220 3220 3220 3221 3222 3222 3223 3223 3223 3223
3137 3137 3138 3139 3139 3140 3141 3142 3143 3144 3145 3146 3146 3147 3149 3149 3150 3152 3153 3153 3154 3155 3156 3156 3158 3158 3159 3160 3161 3162 3163 3165 3166 3167 3168 3167 3168 3169 3170 3170 3171 3173 3174 3175 3176 3177 3178 3179 3180 3182 3183 3185 3187 3189 3191 3192 3194 3197 3198 3200 3202 3204 3204 3205 3206 3207 3208 3209 3210 3212 3213 3215 3216 3217 3218 3219 3220 3220 3221 3222 3222 3222 3223 3223 3223
3135 3135 3136 3137 3137 3138 3139 3140 3141 3142 3143 3144 3144 3145 3147 3148 3149 3150 3152 3152 3153 3154 3156 3157 3158 3158 3158 3159 3160 3162 3163 3164 3165 3166 3167 3167 3167 3168 3168 3169 3170 3172 3173 3174 3175 3176 3177 3178 3179 3181 3182 3184 3186 3188 3190 3192 3194 3196 3198 3199 3202 3203 3204 3205 3206 3206 3207 3209 3210 3211 3212 3213 3214 3216 3217 3218 3219 3220 3220 3221 3221 3222 3222 3222 3222
3133 3133 3134 3135 3135 3136 3137 3138 3139 3140 3141 3142 3143 3143 3144 3146 3148 3149 3150 3151 3153 3154 3155 3155 3156 3156 3156 3157 3158 3160 3162 3164 3164 3165 3166 3167 3167 3167 3168 3169 3170 3171 3172 3173 3174 3175 3177 3178 3178 3179 3181 3182 3184 3187 3189 3191 3193 3195 3197 3198 3201 3202 3204 3205 3205 3206 3207 3208 3209 3210 3212 3213 3213 3214 3215 3217 3218 3219 3219 3220 3220 3221 3221 3221 3222
3131 3131 3131 3132 3133 3134 3135 3136 3137 3137 3139 3140 3141 3141 3142 3143 3146 3147 3148 3150 3152 3152 3151 3152 3152 3154 3155 3156 3157 3158 3160 3162 3163 3164 3164 3165 3165 3166 3167 3168 3169 3170 3172 3173 3173 3175 3176 3177 3178 3178 3179 3181 3183 3185 3188 3190 3191 3194 3196 3197 3199 3201 3203 3204 3205 3206 3207 3208 3209 3210 3211 3212 3213 3213 3214 3215 3216 3217 3218 3219 3220 3220 3221 3221 3221
3129 3129 3128 3128 3129 3131 3133 3134 3135 3135 3136 3137 3139 3140 3140 3141 3144 3145 3146 3148 3149 3149 3150 3150 3151 3152 3154 3155 3156 3157 3158 3160 3162 3163 3163 3164 3164 3165 3166 3167 3168 3169 3171 3172 3172 3173 3175 3176 3177 3177 3178 3179 3181 3183 3186 3188 3190 3192 3194 3196 3198 3200 3202 3203 3204 3205 3206 3207 3208 3209 3210 3211 3212 3213 3213 3214 3215 3216 3217 3218 3219 3220 3220 3220 3220
3127 3127 3126 3125 3126 3128 3130 3132 3133 3134 3134 3135 3137 3138 3139 3140 3141 3144 3145 3145 3146 3147 3148 3148 3149 3150 3152 3153 3154 3155 3157 3158 3160 3161 3162 3163 3163 3164 3164 3165 3167 3168 3169 3170 3171 3172 3173 3175 3176 3176 3177 3178 3180 3182 3184 3186 3188 3190 3192 3194 3196 3198 3200 3202 3203 3204 3205 3207 3207 3208 3209 3210 3211 3212 3213 3214 3214 3215 3216 3217 3218 3219 3220 3220 3220
3126 3125 3124 3124 3124 3126 3127 3129 3130 3132 3132 3133 3134 3136 3137 3138 3139 3141 3143 3143 3144 3145 3145 3147 3147 3148 3149 3151 3152 3154 3155 3157 3158 3159 3160 3161 3162 3162 3163 3164 3165 3167 3168 3168 3169 3170 3172 3173 3174 3175 3176 3177 3178 3180 3182 3184 3186 3189 3191 3193 3195 3197 3199 3200 3202 3203 3205 3206 3207 3208 3209 3210 3210 3211 3212 3213 3214 3214 3215 3216 3217 3218 3218 3219 3219
3125 3124 3123 3123 3123 3124 3125 3126 3127 3129 3130 3131 3132 3133 3134 3135 3137 3139 3141 3141 3142 3143 3143 3145 3145 3145 3148 3149 3150 3152 3153 3154 3155 3156 3158 3159 3160 3160 3161 3162 3163 3165 3166 3167 3168 3169 3170 3172 3173 3174 3175 3176 3177 3179 3181 3183 3185 3187 3189 3191 3193 3195 3197 3199 3200 3202 3203 3205 3206 3207 3208 3209 3210 3210 3211 3212 3213 3213 3214 3215 3216 3217 3217 3218 3218
3124 3122 3121 3122 3122 3122 3123 3124 3125 3126 3128 3129 3129 3130 3131 3132 3133 3135 3137 3138 3139 3140 3142 3142 3143 3144 3147 3148 3148 3150 3150 3151 3152 3154 3155 3156 3158 3158 3159 3160 3162 3163 3163 3165 3166 3167 3168 3170 3171 3172 3173 3174 3175 3177 3179 3181 3183 3185 3187 3189 3191 3193 3195 3197 3199 3200 3202 3203 3205 3206 3207 3208 3209 3210 3210 3211 3212 3212 3213 3214 3215 3215 3216 3217 3217
3123 3122 3120 3120 3121 3121 3122 3122 3123 3124 3125 3126 3127 3127 3128 3129 3130 3131 3133 3135 3136 3138 3139 3140 3141 3142 3144 3145 3146 3148 3148 3148 3149 3151 3152 3154 3155 3156 3157 3158 3159 3160 3161 3163 3164 3164 3166 3168 3169 3171 3172 3173 3174 3175 3177 3179 3181 3183 3184 3186 3188 3190 3192 3195 3197 3198 3200 3201 3203 3204 3205 3206 3208 3209 3209 3210 3211 3211 3212 3213 3214 3214 3215 3216 3216
3122 3121 3120 3119 3119 3120 3121 3121 3122 3122 3123 3123 3124 3125 3125 3126 3127 3128 3130 3131 3132 3134 3137 3138 3139 3139 3140 3141 3143 3144 3145 3146 3147 3148 3149 3150 3152 3153 3155 3156 3157 3157 3158 3160 3161 3162 3164 3165 3167 3169 3170 3171 3172 3173 3175 3177 3179 3181 3182 3183 3185 3187 3190 3192 3194 3196 3197 3199 3201 3202 3204 3205 3206 3207 3208 3209 3209 3210 3211 3211 3212 3213 3214 3214 3215
3120 3120 3120 3119 3119 3119 3119 3120 3120 3120 3120 3121 3121 3122 3123 3123 3124 3125 3126 3128 3129 3131 3133 3135 3136 3136 3137 3138 3139 3140 3140 3142 3144 3145 3146 3147 3149 3150 3151 3153 3154 3155 3155 3157 3158 3160 3161 3163 3164 3166 3168 3169 3171 3172 3173 3174 3177 3179 3180 3181 3183 3185 3187 3189 3191 3193 3195 3197 3199 3200 3201 3203 3204 3205 3207 3208 3208 3209 3209 3210 3211 3212 3212 3213 3213
3119 3119 3119 3118 3118 3117 3118 3118 3118 3118 3118 3118 3118 3119 3119 3120 3121 3121 3123 3124 3126 3127 3129 3131 3133 3133 3134 3136 3136 3136 3136 3139 3141 3142 3143 3144 3145 3145 3147 3149 3150 3152 3152 3153 3155 3157 3158 3160 3162 3164 3165 3167 3169 3170 3171 3172 3174 3176 3178 3179 3180 3182 3184 3185 3187 3189 3192 3194 3196 3198 3199 3200 3202 3203 3205 3206 3207 3207 3208 3209 3209 3210 3211 3211 3212
3118 3118 3118 3117 3117 3116 3116 3116 3116 3117 3117 3117 3117 3116 3116 3117 3117 3118 3119 3120 3122 3123 3125 3127 3129 3129 3130 3132 3133 3133 3134 3136 3137 3138 3140 3141 3141 3141 3142 3144 3146 3148 3150 3150 3152 3154 3155 3157 3159 3161 3163 3165 3167 3168 3168 3169 3171 3173 3175 3176 3178 3179 3180 3182 3184 3186 3189 3191 3194 3195 3197 3198 3199 3201 3203 3204 3205 3206 3206 3207 3208 3209 3209 3210 3210
3116 3116 3116 3116 3115 3115 3114 3114 3114 3114 3114 3115 3115 3114 3114 3114 3114 3115 3115 3117 3118 3120 3121 3123 3124 3125 3126 3127 3129 3130 3131 3132 3133 3135 3136 3137 3138 3138 3137 3139 3142 3144 3146 3147 3149 3151 3153 3155 3157 3159 3161 3162 3164 3165 3166 3167 3168 3170 3172 3174 3175 3176 3178 3179 3181 3183 3185 3187 3190 3193 3195 3196 3197 3199 3200 3202 3203 3204 3205 3205 3206 3207 3208 3208 3209
3114 3114 3113 3113 3113 3112 3112 3112 3112 3112 3111 3112 3112 3112 3112 3111 3111 3112 3112 3113 3114 3115 3117 3118 3120 3121 3122 3123 3125 3126 3126 3127 3129 3131 3132 3132 3133 3135 3135 3136 3139 3142 3144 3145 3146 3148 3150 3152 3154 3155 3157 3159 3161 3163 3164 3164 3165 3166 3169 3172 3173 3174 3175 3177 3179 3181 3182 3184 3187 3190 3192 3194 3195 3196 3198 3199 3201 3202 3203 3204 3204 3205 3206 3207 3207
3112 3111 3111 3111 3110 3110 3110 3109 3109 3109 3109 3108 3108 3108 3109 3109 3109 3109 3109 3109 3110 3111 3113 3114 3115 3117 3118 3118 3120 3122 3122 3123 3124 3126 3127 3127 3128 3132 3134 3135 3136 3139 3142 3143 3144 3145 3146 3148 3150 3151 3153 3156 3158 3160 3161 3161 3162 3164 3167 3169 3170 3172 3173 3175 3177 3178 3180 3182 3184 3186 3189 3191 3193 3194 3195 3197 3198 3199 3200 3201 3202 3203 3204 3205 3205
3110 3109 3109 3109 3108 3108 3107 3106 3106 3106 3106 3105 3105 3105 3105 3106 3106 3106 3106 3106 3106 3107 3108 3110 3111 3112 3113 3114 3115 3117 3118 3119 3120 3121 3122 3123 3124 3127 3131 3133 3134 3136 3139 3140 3141 3142 3143 3144 3147 3149 3150 3152 3155 3157 3157 3158 3160 3162 3163 3164 3167 3169 3171 3173 3175 3176 3178 3179 3181 3183 3186 3188 3190 3191 3192 3194 3195 3196 3197 3199 3200 3201 3202 3203 3203
3108 3107 3107 3107 3106 3105 3104 3103 3103 3102 3102 3102 3102 3102 3102 3102 3102 3103 3103 3103 3103 3103 3104 3106 3106 3107 3108 3109 3110 3111 3113 3115 3116 3117 3118 3120 3121 3123 3126 3129 3131 3133 3135 3137 3138 3140 3141 3142 3143 3145 3147 3149 3152 3154 3155 3156 3158 3159 3159 3161 3164 3166 3168 3171 3173 3174 3175 3177 3179 3181 3183 3185 3186 3188 3190 3191 3192 3194 3195 3196 3198 3198 3199 3200 3201
3106 3106 3105 3105 3104 3103 3102 3101 3100 3099 3099 3099 3099 3099 3099 3099 3099 3099 3099 3099 3100 3100 3100 3101 3101 3102 3103 3104 3105 3106 3108 3110 3112 3113 3114 3116 3118 3120 3123 3125 3127 3128 3131 3133 3135 3137 3139 3139 3140 3142 3144 3147 3149 3152 3153 3154 3155 3156 3157 3159 3161 3163 3167 3169 3170 3171 3172 3174 3176 3178 3180 3182 3184 3186 3187 3188 3190 3191 3192 3194 3195 3195 3196 3197 3198
3105 3104 3103 3102 3101 3100 3099 3099 3098 3096 3095 3095 3095 3095 3095 3095 3095 3095 3095 3096 3096 3096 3096 3096 3096 3097 3099 3100 3101 3102 3103 3105 3107 3108 3110 3112 3114 3116 3119 3122 3123 3124 3126 3129 3132 3134 3135 3137 3138 3139 3140 3143 3145 3148 3150 3152 3153 3154 3154 3156 3158 3160 3163 3165 3166 3167 3169 3172 3174 3176 3177 3179 3181 3183 3184 3186 3187 3188 3190 3191 3192 3192 3193 3195 3196
3103 3102 3101 3100 3099 3098 3097 3096 3095 3094 3092 3091 3091 3091 3091 3091 3091 3091 3091 3091 3092 3092 3092 3091 3092 3093 3094 3095 3097 3098 3098 3100 3102 3103 3105 3106 3109 3111 3114 3117 3119 3121 3122 3124 3126 3129 3131 3133 3135 3137 3138 3139 3141 3144 3147 3149 3150 3151 3152 3154 3155 3157 3159 3161 3162 3164 3166 3168 3171 3173 3175 3177 3179 3180 3182 3184 3185 3186 3188 3189 3189 3190 3191 3192 3194
3101 3100 3099 3098 3097 3096 3095 3094 3093 3091 3090 3088 3087 3087 3086 3087 3087 3087 3087 3087 3087 3088 3087 3087 3087 3088 3089 3090 3092 3093 3094 3095 3096 3098 3099 3101 3103 3105 3108 3111 3114 3116 3118 3120 3122 3123 3126 3129 3131 3133 3135 3136 3137 3140 3143 3145 3147 3149 3150 3152 3153 3154 3156 3158 3160 3161 3163 3165 3167 3170 3172 3174 3176 3178 3180 3182 3183 3184 3185 3186 3187 3188 3189 3190 3191
3099 3098 3097 3096 3095 3094 3093 3092 3090 3088 3087 3085 3084 3083 3082 3082 3082 3082 3083 3083 3082 3083 3083 3083 3083 3083 3084 3085 3086 3088 3089 3090 3091 3092 3093 3096 3098 3099 3101 3104 3107 3110 3113 3115 3118 3118 3120 3124 3127 3129 3132 3133 3135 3137 3139 3141 3144 3145 3147 3149 3150 3152 3153 3155 3156 3158 3160 3162 3164 3167 3169 3171 3174 3176 3178 3180 3181 3182 3183 3184 3185 3186 3187 3188 3189
3097 3096 3095 3094 3092 3091 3090 3089 3088 3086 3084 3082 3081 3080 3079 3078 3078 3077 3078 3078 3078 3078 3078 3078 3079 3079 3079 3080 3081 3082 3084 3085 3086 3087 3088 3090 3092 3094 3095 3098 3100 3103 3106 3110 3113 3114 3115 3118 3122 3125 3127 3130 3133 3134 3136 3139 3141 3142 3144 3146 3148 3149 3150 3152 3153 3155 3157 3160 3162 3164 3166 3168 3171 3174 3175 3177 3179 3180 3181 3181 3183 3184 3184 3186 3187
3095 3094 3092 3091 3090 3089 3088 3087 3085 3083 3081 3079 3077 3076 3075 3074 3073 3072 3072 3073 3073 3073 3073 3073 3074 3074 3075 3076 3076 3077 3078 3079 3081 3082 3083 3084 3086 3088 3090 3092 3095 3097 3099 3103 3107 3110 3111 3114 3117 3120 3123 3125 3129 3131 3132 3135 3137 3138 3140 3142 3145 3147 3148 3149 3151 3153 3155 3158 3160 3162 3164 3166 3168 3170 3172 3174 3176 3178 3178 3179 3180 3182 3182 3184 3184